Regional Weather Roundup
Issued by NWS

Home | Current Version | Previous Version | Graphics & Text | Print | Product List | Glossary On
Versions: 1 2 3 4 5 6 7 8 9 10 11 12 13 14 15 16 17 18 19 20 21 22 23 24 25 26 27
000
ASUS45 KBOI 250410
RWRID

IDAHO REGIONAL WEATHER ROUNDUP
NATIONAL WEATHER SERVICE BOISE ID
1000 PM MDT MON APR 24 2017

NOTE: "FAIR" INDICATES FEW OR NO CLOUDS BELOW 12000 FEET
WITH NO SIGNIFICANT WEATHER AND/OR OBSTRUCTIONS TO VISIBILITY

IDZ012-014-250500-
SOUTHWEST IDAHO


CITY           SKY/WX    TMP DP  RH WIND       PRES   REMARKS
BOISE          LGT RAIN  48  40  73 N5        29.74R
CALDWELL       CLOUDY    49  39  68 W12       29.75
MOUNTAIN HOME  MOCLDY    43  43 100 W8        29.76R
$$

IDZ016-017-250500-
SOUTHCENTRAL IDAHO


CITY           SKY/WX    TMP DP  RH WIND       PRES   REMARKS
BURLEY         MOCLDY    42  35  76 W17       29.73R
JEROME         CLOUDY    42  38  85 W18G26    29.75R
TWIN FALLS     PTCLDY    40  38  93 SW14      29.76R WCI  32
$$

IDZ019>023-250500-
SOUTHEAST IDAHO


CITY           SKY/WX    TMP DP  RH WIND       PRES   REMARKS
IDAHO FALLS    LGT RAIN  40  38  93 E3        29.67R
POCATELLO      CLEAR     40  37  89 SW20      29.71R WCI  30
REXBURG        LGT RAIN  35  35 100 S5        29.65R WCI  31
$$

IDZ006-010-011-018-031-032-250500-
CENTRAL IDAHO MOUNTAINS


CITY           SKY/WX    TMP DP  RH WIND       PRES   REMARKS
MCCALL         CLOUDY    38  35  89 CALM      29.69R
HAILEY         CLEAR     41  28  60 SE6       29.68R
STANLEY          N/A     36  28  73 CALM      29.70R
SALMON         CLOUDY    39  37  93 CALM      29.68R
CHALLIS        CLOUDY    41  35  79 NW8       29.67R
$$

IDZ002-004-006-007-026-250500-
NORTHERN IDAHO


CITY           SKY/WX    TMP DP  RH WIND       PRES   REMARKS
LEWISTON       LGT RAIN  49  45  86 W6        29.74R
LOWELL           N/A     48  46  93 CALM      29.73R
COEUR D`ALENE  PTCLDY    43  40  89 S6        29.73R
MULLAN PASS    FOG       31  31 100 VRB5      29.69R VSB 1/2 WCI  26
$$




USA.gov is the U.S. government's official web portal to all federal, state and local government web resources and services.